Location: Unspecified
(0.0000°N, 0.0000°E)
Time: 14:39:28
(UTC+00:00)

ISS - Visible Passes

Search period start: 15 August 2020 00:00
Search period end: 25 August 2020 00:00
Orbit: 418 x 420 km, 51.6° (Epoch: 15 August)

Date Brightness Start Highest point End Pass type
(mag) Time Alt. Az. Time Alt. Az. Time Alt. Az.
15 Aug -1.5 05:29:28 10° S 05:32:14 23° SE 05:34:59 10° ENE visible
15 Aug -0.9 18:42:52 10° W 18:45:01 16° SW 18:47:10 10° SSW visible
16 Aug -0.7 04:43:41 10° SE 04:44:41 11° SE 04:45:41 10° ESE visible
17 Aug -3.6 05:30:27 10° SW 05:33:45 55° NW 05:37:01 10° NNE visible
18 Aug -3.3 04:45:14 38° S 04:46:12 56° SE 04:49:29 10° NE visible
19 Aug -0.7 04:00:26 15° E 04:00:26 15° E 04:01:23 10° ENE visible
19 Aug -1.5 05:34:22 10° WNW 05:35:14 11° NW 05:36:06 10° NW visible
20 Aug -2.0 04:48:35 20° NNW 04:48:35 20° NNW 04:50:22 10° N visible
